Time,TemperatureF,DewpointF,PressureIn,WindDirection,WindDirectionDegrees,WindSpeedMPH,WindSpeedGustMPH,Humidity,HourlyPrecipIn,Conditions,Clouds,dailyrainin,SoftwareType,DateUTC
2013-02-08 00:00:00,55.4,34.4,29.91,WSW,248,3.4,9.6,45,0.00,,BKN100,0.00,VWS V14.01,2013-02-08 05:00:00,
2013-02-08 00:05:00,55.4,34.4,29.91,SSW,202,3.1,9.6,45,0.00,,BKN100,0.00,VWS V14.01,2013-02-08 05:05:00,
2013-02-08 00:10:00,55.4,34.4,29.91,SSW,202,3.6,9.6,45,0.00,,BKN100,0.00,VWS V14.01,2013-02-08 05:10:00,
2013-02-08 00:15:00,55.4,35.0,29.91,SSW,202,4.9,9.6,46,0.00,,BKN100,0.00,VWS V14.01,2013-02-08 05:15:00,
2013-02-08 00:20:00,55.4,35.0,29.91,SSW,202,3.1,9.6,46,0.00,,-RA,0.00,VWS V14.01,2013-02-08 05:20:00,
2013-02-08 00:25:00,55.0,35.2,29.91,WSW,248,2.7,9.6,47,0.00,,-RA,0.00,VWS V14.01,2013-02-08 05:25:00,
2013-02-08 00:30:00,55.2,35.9,29.91,West,270,2.5,9.6,48,0.00,,-RA,0.00,VWS V14.01,2013-02-08 05:30:00,
2013-02-08 00:35:00,55.0,36.2,29.91,WSW,248,2.9,9.6,49,0.00,,-RA,0.00,VWS V14.01,2013-02-08 05:35:00,
2013-02-08 00:40:00,54.9,36.6,29.91,WSW,248,4.9,9.6,50,0.00,,-RA,0.00,VWS V14.01,2013-02-08 05:40:00,
2013-02-08 00:45:00,54.5,36.8,29.91,SSW,202,4.9,9.6,51,0.00,,OVC070,0.00,VWS V14.01,2013-02-08 05:45:00,
2013-02-08 00:50:00,54.1,36.9,29.91,SW,225,3.4,9.6,52,0.00,,OVC070,0.00,VWS V14.01,2013-02-08 05:50:00,
2013-02-08 00:55:00,54.0,37.2,29.91,SSW,202,3.1,9.6,53,0.00,,OVC070,0.00,VWS V14.01,2013-02-08 05:55:00,
2013-02-08 01:00:00,53.8,38.5,29.91,WSW,248,3.4,4.9,56,0.00,,OVC070,0.00,VWS V14.01,2013-02-08 06:00:00,
2013-02-08 01:05:00,53.4,38.6,29.91,SSW,202,2.0,6.3,57,0.00,,OVC070,0.00,VWS V14.01,2013-02-08 06:05:00,
2013-02-08 01:10:00,53.1,38.7,29.91,SW,225,2.9,6.3,58,0.00,,OVC070,0.00,VWS V14.01,2013-02-08 06:10:00,
2013-02-08 01:15:00,52.9,39.0,29.91,SSW,202,3.1,6.3,59,0.00,,OVC070,0.00,VWS V14.01,2013-02-08 06:15:00,
2013-02-08 01:20:00,52.9,39.4,29.91,WSW,248,2.2,6.3,60,0.00,,-RA,0.00,VWS V14.01,2013-02-08 06:20:00,
2013-02-08 01:25:00,52.7,39.6,29.91,SW,225,3.1,6.3,61,0.00,,-RA,0.00,VWS V14.01,2013-02-08 06:25:00,
2013-02-08 01:30:00,52.5,40.3,29.91,SW,225,2.0,6.3,63,0.04,,-RA,0.04,VWS V14.01,2013-02-08 06:30:00,
2013-02-08 01:35:00,52.3,41.3,29.91,SSW,202,2.9,6.3,66,0.04,,-RA,0.04,VWS V14.01,2013-02-08 06:35:00,
2013-02-08 01:40:00,52.2,41.5,29.91,SSW,202,2.5,6.3,67,0.04,,-RA,0.04,VWS V14.01,2013-02-08 06:40:00,
2013-02-08 01:45:00,51.8,41.2,29.91,SSW,202,2.7,6.3,67,0.04,,-RA,0.04,VWS V14.01,2013-02-08 06:45:00,
2013-02-08 01:50:00,51.8,41.6,29.91,SW,225,1.1,6.3,68,0.04,,-RA,0.04,VWS V14.01,2013-02-08 06:50:00,
2013-02-08 01:55:00,51.6,41.8,29.91,SW,225,2.7,6.3,69,0.04,,-RA,0.04,VWS V14.01,2013-02-08 06:55:00,
2013-02-08 02:00:00,51.4,42.0,29.91,SW,225,2.9,4.9,70,0.04,,-RA,0.04,VWS V14.01,2013-02-08 07:00:00,
2013-02-08 02:05:00,51.4,42.4,29.91,SSW,202,2.7,4.9,71,0.04,,-RA,0.04,VWS V14.01,2013-02-08 07:05:00,
2013-02-08 02:10:00,51.4,42.7,29.91,SW,225,0.0,4.9,72,0.04,,-RA,0.04,VWS V14.01,2013-02-08 07:10:00,
2013-02-08 02:15:00,51.3,42.9,29.91,SSW,202,0.0,4.9,73,0.04,,-RA,0.04,VWS V14.01,2013-02-08 07:15:00,
2013-02-08 02:20:00,51.3,42.9,29.91,WSW,248,0.0,4.9,73,0.04,,-RA,0.04,VWS V14.01,2013-02-08 07:20:00,
2013-02-08 02:25:00,51.3,43.3,29.91,SW,225,0.0,4.9,74,0.04,,-RA,0.04,VWS V14.01,2013-02-08 07:25:00,
2013-02-08 02:30:00,51.3,43.6,29.91,SW,225,0.0,4.9,75,0.04,,-RA,0.04,VWS V14.01,2013-02-08 07:30:00,
2013-02-08 02:35:00,51.3,43.6,29.91,WSW,248,0.0,4.9,75,0.04,,-RA,0.04,VWS V14.01,2013-02-08 07:35:00,
2013-02-08 02:40:00,51.3,43.6,29.91,SW,225,0.0,4.9,75,0.04,,-RA,0.04,VWS V14.01,2013-02-08 07:40:00,
2013-02-08 02:45:00,51.3,44.3,29.91,SSW,202,0.0,4.9,77,0.04,,-RA,0.04,VWS V14.01,2013-02-08 07:45:00,
2013-02-08 02:50:00,51.3,44.3,29.91,SW,225,0.0,4.9,77,0.04,,OVC009,0.04,VWS V14.01,2013-02-08 07:50:00,
2013-02-08 02:55:00,51.3,44.6,29.94,SW,225,0.0,4.9,78,0.04,,OVC009,0.04,VWS V14.01,2013-02-08 07:55:00,
2013-02-08 03:00:00,51.3,44.6,29.94,WSW,248,0.0,0.0,78,0.00,,OVC009,0.04,VWS V14.01,2013-02-08 08:00:00,
2013-02-08 03:05:00,51.3,45.0,29.94,West,270,2.9,3.8,79,0.00,,OVC009,0.04,VWS V14.01,2013-02-08 08:05:00,
2013-02-08 03:10:00,51.3,45.0,29.91,NNW,338,2.5,3.8,79,0.00,,OVC009,0.04,VWS V14.01,2013-02-08 08:10:00,
2013-02-08 03:15:00,51.3,46.0,29.91,NNW,338,2.7,5.4,82,0.00,,OVC009,0.04,VWS V14.01,2013-02-08 08:15:00,
2013-02-08 03:20:00,50.9,46.2,29.91,NNW,338,4.0,9.2,84,0.00,,-RA,0.04,VWS V14.01,2013-02-08 08:20:00,
2013-02-08 03:25:00,50.4,44.8,29.91,WNW,292,9.8,13.4,81,0.00,,-RA,0.04,VWS V14.01,2013-02-08 08:25:00,
2013-02-08 03:30:00,49.8,43.6,29.91,WNW,292,6.0,13.4,79,0.00,,-RA,0.04,VWS V14.01,2013-02-08 08:30:00,
2013-02-08 03:35:00,49.6,43.1,29.91,NW,315,8.5,13.4,78,0.00,,-RA,0.04,VWS V14.01,2013-02-08 08:35:00,
2013-02-08 03:40:00,48.7,42.2,29.94,WNW,292,7.8,13.4,78,0.00,,-RA,0.04,VWS V14.01,2013-02-08 08:40:00,
2013-02-08 03:45:00,48.4,41.8,29.94,NW,315,5.4,13.4,78,0.04,,-RA,0.08,VWS V14.01,2013-02-08 08:45:00,
2013-02-08 03:50:00,48.0,41.8,29.94,WNW,292,5.4,13.4,79,0.04,,-RA,0.08,VWS V14.01,2013-02-08 08:50:00,
2013-02-08 03:55:00,47.7,41.5,29.94,WNW,292,8.1,13.4,79,0.04,,-RA,0.08,VWS V14.01,2013-02-08 08:55:00,
2013-02-08 04:00:00,47.3,41.1,29.94,WSW,248,6.3,9.0,79,0.04,,-RA,0.08,VWS V14.01,2013-02-08 09:00:00,
2013-02-08 04:05:00,46.9,40.8,29.94,NNW,338,6.0,12.1,79,0.04,,-RA,0.08,VWS V14.01,2013-02-08 09:05:00,
2013-02-08 04:10:00,46.8,40.6,29.97,WNW,292,4.0,12.1,79,0.04,,-RA,0.08,VWS V14.01,2013-02-08 09:10:00,
2013-02-08 04:15:00,46.4,40.2,29.97,NW,315,7.6,12.1,79,0.04,,-RA,0.08,VWS V14.01,2013-02-08 09:15:00,
2013-02-08 04:20:00,46.2,40.1,29.97,WNW,292,3.1,12.1,79,0.04,,-RA,0.08,VWS V14.01,2013-02-08 09:20:00,
2013-02-08 04:25:00,45.7,39.2,29.97,WNW,292,6.5,13.0,78,0.04,,-RA,0.08,VWS V14.01,2013-02-08 09:25:00,
2013-02-08 04:30:00,45.3,38.9,29.97,WNW,292,3.8,13.0,78,0.04,,-RA,0.08,VWS V14.01,2013-02-08 09:30:00,
2013-02-08 04:35:00,44.8,38.3,29.97,WNW,292,7.6,13.0,78,0.04,,-RA,0.08,VWS V14.01,2013-02-08 09:35:00,
2013-02-08 04:40:00,44.4,38.0,29.97,WNW,292,10.3,13.0,78,0.04,,-RA,0.08,VWS V14.01,2013-02-08 09:40:00,
2013-02-08 04:45:00,44.2,37.8,29.97,NNW,338,6.3,13.0,78,0.04,,-RA,0.08,VWS V14.01,2013-02-08 09:45:00,
2013-02-08 04:50:00,43.9,37.5,29.97,WNW,292,4.3,13.0,78,0.04,,-RA,0.08,VWS V14.01,2013-02-08 09:50:00,
2013-02-08 04:55:00,43.7,37.6,29.97,WNW,292,2.9,13.0,79,0.04,,-RA,0.08,VWS V14.01,2013-02-08 09:55:00,
2013-02-08 05:00:00,43.5,37.5,29.97,WNW,292,10.5,11.2,79,0.00,,-RA,0.08,VWS V14.01,2013-02-08 10:00:00,
2013-02-08 05:05:00,43.2,37.1,29.97,WNW,292,4.0,13.2,79,0.00,,-RA,0.08,VWS V14.01,2013-02-08 10:05:00,
2013-02-08 05:10:00,42.8,36.8,29.97,WNW,292,3.8,13.2,79,0.00,,-RA,0.08,VWS V14.01,2013-02-08 10:10:00,
2013-02-08 05:15:00,42.8,36.8,29.97,WNW,292,7.8,13.2,79,0.00,,-RA,0.08,VWS V14.01,2013-02-08 10:15:00,
2013-02-08 05:20:00,42.6,36.9,29.97,WNW,292,3.1,13.2,80,0.00,,OVC007,0.08,VWS V14.01,2013-02-08 10:20:00,
2013-02-08 05:25:00,42.4,36.4,30.00,NNW,338,7.6,13.2,79,0.00,,OVC007,0.08,VWS V14.01,2013-02-08 10:25:00,
2013-02-08 05:30:00,42.4,36.4,30.00,NW,315,4.9,13.2,79,0.00,,OVC007,0.08,VWS V14.01,2013-02-08 10:30:00,
2013-02-08 05:35:00,42.3,35.9,30.00,North,0,6.5,13.2,78,0.00,,OVC007,0.08,VWS V14.01,2013-02-08 10:35:00,
2013-02-08 05:40:00,42.3,35.9,30.00,WNW,292,4.0,13.2,78,0.00,,OVC007,0.08,VWS V14.01,2013-02-08 10:40:00,
2013-02-08 05:45:00,42.3,35.9,30.00,NW,315,2.5,13.2,78,0.00,,OVC007,0.08,VWS V14.01,2013-02-08 10:45:00,
2013-02-08 05:50:00,42.1,35.7,30.00,NW,315,4.0,13.2,78,0.00,,OVC007,0.08,VWS V14.01,2013-02-08 10:50:00,
2013-02-08 05:55:00,41.9,35.5,30.03,NNE,22,6.5,13.2,78,0.00,,OVC007,0.08,VWS V14.01,2013-02-08 10:55:00,
2013-02-08 06:00:00,41.7,35.4,30.03,WNW,292,3.6,7.4,78,0.00,,OVC007,0.08,VWS V14.01,2013-02-08 11:00:00,
2013-02-08 06:05:00,41.5,34.9,30.03,NW,315,4.3,7.4,77,0.00,,OVC007,0.08,VWS V14.01,2013-02-08 11:05:00,
2013-02-08 06:10:00,41.5,34.9,30.03,WNW,292,4.9,7.8,77,0.00,,OVC007,0.08,VWS V14.01,2013-02-08 11:10:00,
2013-02-08 06:15:00,41.5,34.9,30.03,WNW,292,8.1,10.1,77,0.00,,OVC007,0.08,VWS V14.01,2013-02-08 11:15:00,
2013-02-08 06:20:00,41.2,34.2,30.03,NNW,338,10.3,10.7,76,0.00,,OVC011,0.08,VWS V14.01,2013-02-08 11:20:00,
2013-02-08 06:25:00,41.2,33.9,30.03,NNE,22,4.3,15.9,75,0.00,,OVC011,0.08,VWS V14.01,2013-02-08 11:25:00,
2013-02-08 06:30:00,41.0,33.4,30.03,NNW,338,5.4,16.3,74,0.00,,OVC011,0.08,VWS V14.01,2013-02-08 11:30:00,
2013-02-08 06:35:00,41.0,33.4,30.03,NNE,22,5.8,16.3,74,0.00,,OVC011,0.08,VWS V14.01,2013-02-08 11:35:00,
2013-02-08 06:40:00,41.0,33.4,30.06,NNW,338,3.4,16.3,74,0.00,,OVC011,0.08,VWS V14.01,2013-02-08 11:40:00,
2013-02-08 06:45:00,41.0,33.0,30.06,WNW,292,6.0,16.3,73,0.00,,OVC011,0.08,VWS V14.01,2013-02-08 11:45:00,
2013-02-08 06:50:00,40.8,32.5,30.06,WNW,292,2.9,16.3,72,0.00,,OVC015,0.08,VWS V14.01,2013-02-08 11:50:00,
2013-02-08 06:55:00,40.8,32.5,30.06,West,270,4.3,16.3,72,0.00,,OVC015,0.08,VWS V14.01,2013-02-08 11:55:00,
2013-02-08 07:00:00,40.8,32.5,30.06,NNE,22,5.8,13.0,72,0.00,,OVC015,0.08,VWS V14.01,2013-02-08 12:00:00,
2013-02-08 07:05:00,40.8,32.5,30.06,NW,315,2.9,13.0,72,0.00,,OVC015,0.08,VWS V14.01,2013-02-08 12:05:00,
2013-02-08 07:10:00,40.6,32.3,30.06,WNW,292,4.0,13.0,72,0.00,,OVC015,0.08,VWS V14.01,2013-02-08 12:10:00,
2013-02-08 07:15:00,40.6,32.3,30.06,NNW,338,2.9,13.0,72,0.00,,OVC015,0.08,VWS V14.01,2013-02-08 12:15:00,
2013-02-08 07:20:00,40.6,32.3,30.06,NNW,338,3.1,13.0,72,0.00,,OVC010,0.08,VWS V14.01,2013-02-08 12:20:00,
2013-02-08 07:25:00,40.5,32.2,30.09,NW,315,3.6,13.0,72,0.00,,OVC010,0.08,VWS V14.01,2013-02-08 12:25:00,
2013-02-08 07:30:00,40.5,31.8,30.09,NW,315,2.9,13.0,71,0.00,,OVC010,0.08,VWS V14.01,2013-02-08 12:30:00,
2013-02-08 07:35:00,40.3,31.6,30.09,WNW,292,5.6,13.0,71,0.00,,OVC010,0.08,VWS V14.01,2013-02-08 12:35:00,
2013-02-08 07:40:00,40.1,31.5,30.09,WNW,292,2.5,13.0,71,0.00,,OVC010,0.08,VWS V14.01,2013-02-08 12:40:00,
2013-02-08 07:45:00,39.9,31.3,30.09,WNW,292,7.4,13.0,71,0.00,,OVC010,0.08,VWS V14.01,2013-02-08 12:45:00,
2013-02-08 07:50:00,39.9,30.9,30.09,NNW,338,4.9,13.0,70,0.00,,OVC010,0.08,VWS V14.01,2013-02-08 12:50:00,
2013-02-08 07:55:00,39.7,30.8,30.09,WNW,292,2.0,13.0,70,0.00,,OVC010,0.08,VWS V14.01,2013-02-08 12:55:00,
2013-02-08 08:00:00,39.7,30.8,30.09,North,0,7.8,7.8,70,0.00,,OVC010,0.08,VWS V14.01,2013-02-08 13:00:00,
2013-02-08 08:05:00,39.7,30.8,30.09,NW,315,3.1,10.5,70,0.00,,OVC010,0.08,VWS V14.01,2013-02-08 13:05:00,
2013-02-08 08:10:00,39.6,30.6,30.09,WNW,292,10.1,12.3,70,0.00,,OVC010,0.08,VWS V14.01,2013-02-08 13:10:00,
2013-02-08 08:15:00,39.6,30.6,30.09,NNW,338,5.8,12.3,70,0.00,,OVC010,0.08,VWS V14.01,2013-02-08 13:15:00,
2013-02-08 08:20:00,39.6,30.6,30.09,NNE,22,3.4,12.3,70,0.00,,OVC012,0.08,VWS V14.01,2013-02-08 13:20:00,
2013-02-08 08:25:00,39.4,30.4,30.09,NNW,338,6.0,12.3,70,0.00,,OVC012,0.08,VWS V14.01,2013-02-08 13:25:00,
2013-02-08 08:30:00,39.4,30.4,30.09,NW,315,3.6,12.3,70,0.00,,OVC012,0.08,VWS V14.01,2013-02-08 13:30:00,
2013-02-08 08:35:00,39.4,30.4,30.09,NW,315,4.0,12.3,70,0.00,,OVC012,0.08,VWS V14.01,2013-02-08 13:35:00,
2013-02-08 08:40:00,39.4,30.4,30.12,NNE,22,9.2,12.3,70,0.00,,OVC012,0.08,VWS V14.01,2013-02-08 13:40:00,
2013-02-08 08:45:00,39.4,30.1,30.12,NNW,338,2.9,12.5,69,0.00,,OVC012,0.08,VWS V14.01,2013-02-08 13:45:00,
2013-02-08 08:50:00,39.4,30.1,30.12,SW,225,3.4,12.5,69,0.00,,OVC012,0.08,VWS V14.01,2013-02-08 13:50:00,
2013-02-08 08:55:00,39.4,30.1,30.15,North,0,3.8,12.5,69,0.00,,OVC012,0.08,VWS V14.01,2013-02-08 13:55:00,
2013-02-08 09:00:00,39.4,30.1,30.15,NNW,338,3.4,10.3,69,0.00,,OVC012,0.08,VWS V14.01,2013-02-08 14:00:00,
2013-02-08 09:05:00,39.4,30.1,30.15,NNE,22,5.6,10.3,69,0.00,,OVC012,0.08,VWS V14.01,2013-02-08 14:05:00,
2013-02-08 09:10:00,39.4,30.1,30.15,WNW,292,2.9,10.3,69,0.00,,OVC012,0.08,VWS V14.01,2013-02-08 14:10:00,
2013-02-08 09:15:00,39.6,30.2,30.15,WNW,292,3.8,10.3,69,0.00,,OVC012,0.08,VWS V14.01,2013-02-08 14:15:00,
2013-02-08 09:20:00,39.6,30.2,30.15,WNW,292,3.4,10.3,69,0.00,,OVC012,0.08,VWS V14.01,2013-02-08 14:20:00,
2013-02-08 09:25:00,39.4,29.7,30.15,NW,315,6.9,10.3,68,0.00,,OVC012,0.08,VWS V14.01,2013-02-08 14:25:00,
2013-02-08 09:30:00,39.4,29.7,30.15,NW,315,3.6,10.3,68,0.00,,OVC012,0.08,VWS V14.01,2013-02-08 14:30:00,
2013-02-08 09:35:00,39.4,29.7,30.15,WNW,292,6.5,10.3,68,0.00,,OVC012,0.08,VWS V14.01,2013-02-08 14:35:00,
2013-02-08 09:40:00,39.4,29.4,30.15,NNE,22,9.8,10.3,67,0.00,,OVC012,0.08,VWS V14.01,2013-02-08 14:40:00,
2013-02-08 09:45:00,39.4,28.2,30.15,NNW,338,3.8,12.5,64,0.00,,OVC012,0.08,VWS V14.01,2013-02-08 14:45:00,
2013-02-08 09:50:00,39.4,28.2,30.15,NNW,338,4.0,12.5,64,0.00,,OVC012,0.08,VWS V14.01,2013-02-08 14:50:00,
2013-02-08 09:55:00,39.4,27.9,30.15,NNW,338,6.0,12.5,63,0.00,,OVC012,0.08,VWS V14.01,2013-02-08 14:55:00,
2013-02-08 10:00:00,39.2,27.7,30.15,WNW,292,3.8,7.4,63,0.00,,OVC012,0.08,VWS V14.01,2013-02-08 15:00:00,
2013-02-08 10:05:00,39.2,28.1,30.15,WSW,248,4.0,11.0,64,0.00,,OVC012,0.08,VWS V14.01,2013-02-08 15:05:00,
2013-02-08 10:10:00,39.0,27.5,30.15,NNW,338,5.8,11.9,63,0.00,,OVC012,0.08,VWS V14.01,2013-02-08 15:10:00,
2013-02-08 10:15:00,39.0,27.5,30.15,NNE,22,5.8,13.9,63,0.00,,OVC012,0.08,VWS V14.01,2013-02-08 15:15:00,
2013-02-08 10:20:00,39.0,27.5,30.15,NNW,338,8.7,13.9,63,0.00,,OVC014,0.08,VWS V14.01,2013-02-08 15:20:00,
2013-02-08 10:25:00,38.8,27.3,30.18,WNW,292,3.4,13.9,63,0.00,,OVC014,0.08,VWS V14.01,2013-02-08 15:25:00,
2013-02-08 10:30:00,38.8,27.3,30.18,NW,315,6.5,13.9,63,0.00,,OVC014,0.08,VWS V14.01,2013-02-08 15:30:00,
2013-02-08 10:35:00,38.8,27.3,30.18,NNW,338,5.6,13.9,63,0.00,,OVC014,0.08,VWS V14.01,2013-02-08 15:35:00,
2013-02-08 10:40:00,38.8,27.3,30.21,WSW,248,7.8,13.9,63,0.00,,OVC014,0.08,VWS V14.01,2013-02-08 15:40:00,
2013-02-08 10:45:00,38.8,27.3,30.21,NNE,22,2.9,13.9,63,0.00,,OVC014,0.08,VWS V14.01,2013-02-08 15:45:00,
2013-02-08 10:50:00,38.8,27.3,30.21,WNW,292,10.3,13.9,63,0.00,,OVC015,0.08,VWS V14.01,2013-02-08 15:50:00,
2013-02-08 10:55:00,38.8,27.3,30.21,WNW,292,9.6,13.9,63,0.00,,OVC015,0.08,VWS V14.01,2013-02-08 15:55:00,
2013-02-08 11:00:00,38.8,27.0,30.21,NW,315,3.8,9.8,62,0.00,,OVC015,0.08,VWS V14.01,2013-02-08 16:00:00,
2013-02-08 11:05:00,38.8,27.0,30.21,NW,315,8.7,9.8,62,0.00,,OVC015,0.08,VWS V14.01,2013-02-08 16:05:00,
2013-02-08 11:10:00,39.0,27.1,30.21,WNW,292,3.8,10.7,62,0.00,,OVC015,0.08,VWS V14.01,2013-02-08 16:10:00,
2013-02-08 11:15:00,39.2,26.9,30.21,NNE,22,8.1,10.7,61,0.00,,OVC015,0.08,VWS V14.01,2013-02-08 16:15:00,
2013-02-08 11:20:00,39.2,26.5,30.21,NW,315,8.7,10.7,60,0.00,,OVC015,0.08,VWS V14.01,2013-02-08 16:20:00,
2013-02-08 11:25:00,39.2,26.5,30.21,NNE,22,6.0,10.7,60,0.00,,OVC015,0.08,VWS V14.01,2013-02-08 16:25:00,
2013-02-08 11:30:00,39.2,26.5,30.21,WNW,292,1.3,10.7,60,0.00,,OVC015,0.08,VWS V14.01,2013-02-08 16:30:00,
2013-02-08 11:35:00,39.2,26.5,30.21,NE,45,5.8,10.7,60,0.00,,OVC015,0.08,VWS V14.01,2013-02-08 16:35:00,
2013-02-08 11:40:00,39.2,26.5,30.21,NNW,338,4.7,10.7,60,0.00,,OVC015,0.08,VWS V14.01,2013-02-08 16:40:00,
2013-02-08 11:45:00,39.2,26.5,30.21,NNW,338,3.8,10.7,60,0.00,,OVC015,0.08,VWS V14.01,2013-02-08 16:45:00,
2013-02-08 11:50:00,39.2,26.5,30.21,NNW,338,5.4,10.7,60,0.00,,OVC015,0.08,VWS V14.01,2013-02-08 16:50:00,
2013-02-08 11:55:00,39.4,25.9,30.24,WNW,292,4.0,10.7,58,0.00,,OVC015,0.08,VWS V14.01,2013-02-08 16:55:00,
2013-02-08 12:00:00,39.4,25.9,30.24,NW,315,8.1,11.4,58,0.00,,OVC015,0.08,VWS V14.01,2013-02-08 17:00:00,
2013-02-08 12:05:00,39.4,25.9,30.24,WNW,292,3.8,12.5,58,0.00,,OVC015,0.08,VWS V14.01,2013-02-08 17:05:00,
2013-02-08 12:10:00,39.4,26.3,30.24,WNW,292,3.8,12.5,59,0.00,,OVC015,0.08,VWS V14.01,2013-02-08 17:10:00,
2013-02-08 12:15:00,39.4,26.3,30.24,WNW,292,4.9,12.5,59,0.00,,OVC015,0.08,VWS V14.01,2013-02-08 17:15:00,
2013-02-08 12:20:00,39.4,26.3,30.24,NW,315,4.7,12.5,59,0.00,,OVC015,0.08,VWS V14.01,2013-02-08 17:20:00,
2013-02-08 12:25:00,39.6,26.4,30.24,WNW,292,1.6,12.5,59,0.00,,OVC015,0.08,VWS V14.01,2013-02-08 17:25:00,
2013-02-08 12:30:00,39.6,26.4,30.24,WNW,292,5.8,12.5,59,0.00,,OVC015,0.08,VWS V14.01,2013-02-08 17:30:00,
2013-02-08 12:35:00,39.6,26.4,30.24,North,0,2.0,12.5,59,0.00,,OVC015,0.08,VWS V14.01,2013-02-08 17:35:00,
2013-02-08 12:40:00,39.6,26.4,30.24,WNW,292,8.7,12.5,59,0.00,,OVC015,0.08,VWS V14.01,2013-02-08 17:40:00,
2013-02-08 12:45:00,39.4,25.0,30.24,NNW,338,10.5,12.5,56,0.00,,OVC015,0.08,VWS V14.01,2013-02-08 17:45:00,
2013-02-08 12:50:00,39.4,23.7,30.24,NNW,338,8.5,12.5,53,0.00,,OVC015,0.08,VWS V14.01,2013-02-08 17:50:00,
2013-02-08 12:55:00,39.6,23.9,30.24,ENE,68,10.1,12.5,53,0.00,,OVC015,0.08,VWS V14.01,2013-02-08 17:55:00,
2013-02-08 13:00:00,39.7,23.6,30.24,NNE,22,5.6,11.0,52,0.00,,OVC015,0.08,VWS V14.01,2013-02-08 18:00:00,
2013-02-08 13:05:00,39.7,23.1,30.24,North,0,7.8,13.0,51,0.00,,OVC018,0.08,VWS V14.01,2013-02-08 18:05:00,
2013-02-08 13:10:00,39.7,23.1,30.24,North,0,3.1,13.0,51,0.00,,OVC018,0.08,VWS V14.01,2013-02-08 18:10:00,
2013-02-08 13:15:00,39.7,23.6,30.24,NNW,338,2.9,13.0,52,0.00,,OVC018,0.08,VWS V14.01,2013-02-08 18:15:00,
2013-02-08 13:20:00,39.7,23.6,30.24,West,270,3.4,13.0,52,0.00,,OVC018,0.08,VWS V14.01,2013-02-08 18:20:00,
2013-02-08 13:25:00,39.9,24.2,30.24,NW,315,3.1,13.0,53,0.00,,OVC018,0.08,VWS V14.01,2013-02-08 18:25:00,
2013-02-08 13:30:00,39.9,24.2,30.24,WNW,292,3.8,13.0,53,0.00,,OVC018,0.08,VWS V14.01,2013-02-08 18:30:00,
2013-02-08 13:35:00,39.9,24.2,30.24,NNW,338,5.4,13.0,53,0.00,,OVC018,0.08,VWS V14.01,2013-02-08 18:35:00,
2013-02-08 13:40:00,40.1,24.4,30.24,WNW,292,6.0,13.0,53,0.00,,OVC018,0.08,VWS V14.01,2013-02-08 18:40:00,
2013-02-08 13:45:00,40.1,24.4,30.24,NNW,338,2.5,13.0,53,0.00,,OVC018,0.08,VWS V14.01,2013-02-08 18:45:00,
2013-02-08 13:50:00,40.1,24.4,30.24,NNW,338,4.0,13.0,53,0.00,,OVC018,0.08,VWS V14.01,2013-02-08 18:50:00,
2013-02-08 13:55:00,40.1,24.4,30.27,NNW,338,3.4,13.0,53,0.00,,OVC018,0.08,VWS V14.01,2013-02-08 18:55:00,
2013-02-08 14:00:00,39.7,23.1,30.27,NNW,338,8.1,10.5,51,0.00,,OVC018,0.08,VWS V14.01,2013-02-08 19:00:00,
2013-02-08 14:05:00,39.7,23.6,30.27,North,0,4.9,10.5,52,0.00,,OVC017,0.08,VWS V14.01,2013-02-08 19:05:00,
2013-02-08 14:10:00,39.7,23.6,30.24,NNW,338,7.6,10.5,52,0.00,,OVC017,0.08,VWS V14.01,2013-02-08 19:10:00,
2013-02-08 14:15:00,39.6,22.5,30.24,NW,315,3.4,13.2,50,0.00,,OVC017,0.08,VWS V14.01,2013-02-08 19:15:00,
2013-02-08 14:20:00,39.7,23.1,30.24,NNW,338,7.4,13.2,51,0.00,,OVC017,0.08,VWS V14.01,2013-02-08 19:20:00,
2013-02-08 14:25:00,39.7,23.1,30.27,WNW,292,5.4,13.2,51,0.00,,OVC017,0.08,VWS V14.01,2013-02-08 19:25:00,
2013-02-08 14:30:00,39.9,23.3,30.27,North,0,7.4,13.2,51,0.00,,OVC017,0.08,VWS V14.01,2013-02-08 19:30:00,
2013-02-08 14:35:00,39.7,23.1,30.27,NW,315,0.0,13.2,51,0.00,,OVC017,0.08,VWS V14.01,2013-02-08 19:35:00,
2013-02-08 14:40:00,39.9,23.7,30.27,WNW,292,4.9,13.2,52,0.00,,OVC017,0.08,VWS V14.01,2013-02-08 19:40:00,
2013-02-08 14:45:00,39.9,23.7,30.27,NW,315,4.9,13.2,52,0.00,,OVC017,0.08,VWS V14.01,2013-02-08 19:45:00,
2013-02-08 14:50:00,39.7,23.6,30.27,WSW,248,2.7,13.2,52,0.00,,OVC017,0.08,VWS V14.01,2013-02-08 19:50:00,
2013-02-08 14:55:00,39.7,24.0,30.27,NNW,338,1.3,13.2,53,0.00,,OVC017,0.08,VWS V14.01,2013-02-08 19:55:00,
2013-02-08 15:00:00,39.7,24.0,30.27,NNW,338,3.4,5.8,53,0.00,,OVC017,0.08,VWS V14.01,2013-02-08 20:00:00,
2013-02-08 15:05:00,39.7,24.0,30.27,WNW,292,5.8,7.2,53,0.00,,OVC020,0.08,VWS V14.01,2013-02-08 20:05:00,
2013-02-08 15:10:00,39.4,23.2,30.27,WNW,292,5.4,7.8,52,0.00,,OVC020,0.08,VWS V14.01,2013-02-08 20:10:00,
2013-02-08 15:15:00,39.6,24.3,30.27,WNW,292,2.7,7.8,54,0.00,,OVC020,0.08,VWS V14.01,2013-02-08 20:15:00,
2013-02-08 15:20:00,39.6,23.9,30.27,WNW,292,7.2,7.8,53,0.00,,OVC020,0.08,VWS V14.01,2013-02-08 20:20:00,
2013-02-08 15:25:00,39.4,23.2,30.27,NNW,338,5.8,8.7,52,0.00,,OVC020,0.08,VWS V14.01,2013-02-08 20:25:00,
2013-02-08 15:30:00,39.2,23.1,30.27,NW,315,3.8,8.7,52,0.00,,OVC020,0.08,VWS V14.01,2013-02-08 20:30:00,
2013-02-08 15:35:00,39.0,22.9,30.27,WNW,292,2.9,9.8,52,0.00,,OVC020,0.08,VWS V14.01,2013-02-08 20:35:00,
2013-02-08 15:40:00,39.0,23.4,30.27,NNW,338,6.3,9.8,53,0.00,,OVC020,0.08,VWS V14.01,2013-02-08 20:40:00,
2013-02-08 15:45:00,39.2,23.1,30.27,NNW,338,3.4,9.8,52,0.00,,OVC020,0.08,VWS V14.01,2013-02-08 20:45:00,
2013-02-08 15:50:00,39.0,22.9,30.27,North,0,3.6,9.8,52,0.00,,OVC020,0.08,VWS V14.01,2013-02-08 20:50:00,
2013-02-08 15:55:00,38.8,22.7,30.30,NNW,338,6.0,9.8,52,0.00,,OVC020,0.08,VWS V14.01,2013-02-08 20:55:00,
2013-02-08 16:00:00,38.8,22.3,30.30,NNW,338,4.9,9.8,51,0.00,,OVC020,0.08,VWS V14.01,2013-02-08 21:00:00,
2013-02-08 16:05:00,38.7,22.1,30.30,NNE,22,8.5,9.8,51,0.00,,OVC020,0.08,VWS V14.01,2013-02-08 21:05:00,
2013-02-08 16:10:00,38.7,22.1,30.30,NW,315,2.5,9.8,51,0.00,,OVC020,0.08,VWS V14.01,2013-02-08 21:10:00,
2013-02-08 16:15:00,38.7,22.6,30.30,WNW,292,2.0,9.8,52,0.00,,OVC020,0.08,VWS V14.01,2013-02-08 21:15:00,
2013-02-08 16:20:00,38.7,23.0,30.30,WNW,292,4.0,9.8,53,0.00,,OVC020,0.08,VWS V14.01,2013-02-08 21:20:00,
2013-02-08 16:25:00,38.7,23.0,30.30,NNW,338,3.8,9.8,53,0.00,,OVC020,0.08,VWS V14.01,2013-02-08 21:25:00,
2013-02-08 16:30:00,38.5,22.4,30.30,NNW,338,3.6,9.8,52,0.00,,OVC020,0.08,VWS V14.01,2013-02-08 21:30:00,
2013-02-08 16:35:00,38.5,22.9,30.30,WNW,292,5.4,9.8,53,0.00,,OVC020,0.08,VWS V14.01,2013-02-08 21:35:00,
2013-02-08 16:40:00,38.5,22.9,30.33,North,0,6.0,9.8,53,0.00,,OVC020,0.08,VWS V14.01,2013-02-08 21:40:00,
2013-02-08 16:45:00,38.5,22.9,30.33,NNE,22,6.0,9.8,53,0.00,,OVC020,0.08,VWS V14.01,2013-02-08 21:45:00,
2013-02-08 16:50:00,38.1,22.1,30.33,NNW,338,9.2,9.8,52,0.00,,OVC020,0.08,VWS V14.01,2013-02-08 21:50:00,
2013-02-08 16:55:00,38.1,22.1,30.33,WNW,292,3.1,10.7,52,0.00,,OVC020,0.08,VWS V14.01,2013-02-08 21:55:00,
2013-02-08 17:00:00,38.3,22.7,30.33,NW,315,6.9,6.9,53,0.00,,OVC020,0.08,VWS V14.01,2013-02-08 22:00:00,
2013-02-08 17:05:00,38.1,22.1,30.33,NNW,338,7.8,8.7,52,0.00,,OVC024,0.08,VWS V14.01,2013-02-08 22:05:00,
2013-02-08 17:10:00,38.1,22.5,30.33,NW,315,4.3,8.7,53,0.00,,OVC024,0.08,VWS V14.01,2013-02-08 22:10:00,
2013-02-08 17:15:00,38.1,22.5,30.33,WNW,292,4.0,8.7,53,0.00,,OVC024,0.08,VWS V14.01,2013-02-08 22:15:00,
2013-02-08 17:20:00,38.1,22.5,30.33,West,270,4.3,8.7,53,0.00,,OVC024,0.08,VWS V14.01,2013-02-08 22:20:00,
2013-02-08 17:25:00,38.1,22.1,30.33,West,270,2.9,8.7,52,0.00,,OVC024,0.08,VWS V14.01,2013-02-08 22:25:00,
2013-02-08 17:30:00,38.1,22.1,30.33,NW,315,3.8,9.2,52,0.00,,OVC024,0.08,VWS V14.01,2013-02-08 22:30:00,
2013-02-08 17:35:00,38.1,22.1,30.33,NNW,338,4.3,9.2,52,0.00,,OVC024,0.08,VWS V14.01,2013-02-08 22:35:00,
2013-02-08 17:40:00,38.1,22.1,30.33,WNW,292,2.7,9.2,52,0.00,,OVC024,0.08,VWS V14.01,2013-02-08 22:40:00,
2013-02-08 17:45:00,38.1,22.5,30.33,NNW,338,5.8,9.2,53,0.00,,OVC024,0.08,VWS V14.01,2013-02-08 22:45:00,
2013-02-08 17:50:00,38.1,22.5,30.33,WNW,292,4.7,9.2,53,0.00,,OVC024,0.08,VWS V14.01,2013-02-08 22:50:00,
2013-02-08 17:55:00,37.9,22.4,30.33,NNW,338,3.6,9.2,53,0.00,,OVC024,0.08,VWS V14.01,2013-02-08 22:55:00,
2013-02-08 18:00:00,37.8,22.2,30.33,WNW,292,3.8,8.7,53,0.00,,OVC024,0.08,VWS V14.01,2013-02-08 23:00:00,
2013-02-08 18:05:00,37.8,22.2,30.33,NNW,338,4.3,8.7,53,0.00,,OVC019,0.08,VWS V14.01,2013-02-08 23:05:00,
2013-02-08 18:10:00,37.6,22.0,30.36,NW,315,1.6,8.7,53,0.00,,OVC019,0.08,VWS V14.01,2013-02-08 23:10:00,
2013-02-08 18:15:00,37.6,22.0,30.36,NNW,338,2.5,9.0,53,0.00,,OVC019,0.08,VWS V14.01,2013-02-08 23:15:00,
2013-02-08 18:20:00,37.6,22.0,30.36,NNW,338,7.8,9.0,53,0.00,,OVC019,0.08,VWS V14.01,2013-02-08 23:20:00,
2013-02-08 18:25:00,37.4,21.4,30.36,NNW,338,3.8,9.0,52,0.00,,OVC019,0.08,VWS V14.01,2013-02-08 23:25:00,
2013-02-08 18:30:00,37.4,21.9,30.36,North,0,5.4,9.0,53,0.00,,OVC019,0.08,VWS V14.01,2013-02-08 23:30:00,
2013-02-08 18:35:00,37.4,21.9,30.36,WNW,292,3.4,9.0,53,0.00,,OVC019,0.08,VWS V14.01,2013-02-08 23:35:00,
2013-02-08 18:40:00,37.4,21.4,30.36,NNW,338,6.9,9.0,52,0.00,,OVC019,0.08,VWS V14.01,2013-02-08 23:40:00,
2013-02-08 18:45:00,37.2,21.2,30.36,North,0,2.7,9.0,52,0.00,,OVC019,0.08,VWS V14.01,2013-02-08 23:45:00,
2013-02-08 18:50:00,37.2,21.2,30.36,WNW,292,4.0,9.6,52,0.00,,OVC019,0.08,VWS V14.01,2013-02-08 23:50:00,
2013-02-08 18:55:00,37.2,21.2,30.39,NW,315,5.4,9.6,52,0.00,,OVC019,0.08,VWS V14.01,2013-02-08 23:55:00,
2013-02-08 19:00:00,37.2,21.2,30.39,NNW,338,7.2,8.1,52,0.00,,OVC019,0.08,VWS V14.01,2013-02-09 00:00:00,
2013-02-08 19:05:00,37.0,20.6,30.39,North,0,3.8,8.7,51,0.00,,OVC018,0.08,VWS V14.01,2013-02-09 00:05:00,
2013-02-08 19:10:00,37.0,21.1,30.39,NNW,338,4.3,8.7,52,0.00,,OVC018,0.08,VWS V14.01,2013-02-09 00:10:00,
2013-02-08 19:15:00,37.0,21.1,30.39,NNW,338,4.0,8.7,52,0.00,,OVC018,0.08,VWS V14.01,2013-02-09 00:15:00,
2013-02-08 19:20:00,37.0,20.6,30.39,NNW,338,2.7,8.7,51,0.00,,OVC018,0.08,VWS V14.01,2013-02-09 00:20:00,
2013-02-08 19:25:00,37.0,21.1,30.39,NNW,338,7.6,9.6,52,0.00,,OVC018,0.08,VWS V14.01,2013-02-09 00:25:00,
2013-02-08 19:30:00,37.0,21.1,30.39,North,0,3.4,9.6,52,0.00,,OVC018,0.08,VWS V14.01,2013-02-09 00:30:00,
2013-02-08 19:35:00,37.0,21.1,30.39,NNW,338,1.1,9.6,52,0.00,,OVC018,0.08,VWS V14.01,2013-02-09 00:35:00,
2013-02-08 19:40:00,37.2,21.2,30.39,NW,315,3.4,9.6,52,0.00,,OVC018,0.08,VWS V14.01,2013-02-09 00:40:00,
2013-02-08 19:45:00,37.2,21.2,30.39,NW,315,1.6,9.6,52,0.00,,OVC018,0.08,VWS V14.01,2013-02-09 00:45:00,
2013-02-08 19:50:00,37.2,21.2,30.39,WNW,292,2.5,9.6,52,0.00,,OVC018,0.08,VWS V14.01,2013-02-09 00:50:00,
2013-02-08 19:55:00,37.2,21.2,30.39,West,270,2.5,9.6,52,0.00,,OVC018,0.08,VWS V14.01,2013-02-09 00:55:00,
2013-02-08 20:00:00,37.2,21.2,30.39,WNW,292,2.9,4.3,52,0.00,,OVC018,0.08,VWS V14.01,2013-02-09 01:00:00,
2013-02-08 20:05:00,37.2,21.2,30.39,WNW,292,2.7,4.3,52,0.00,,OVC021,0.08,VWS V14.01,2013-02-09 01:05:00,
2013-02-08 20:10:00,37.2,21.2,30.39,WNW,292,2.0,4.3,52,0.00,,OVC021,0.08,VWS V14.01,2013-02-09 01:10:00,
2013-02-08 20:15:00,37.0,21.1,30.39,NNW,338,2.7,4.7,52,0.00,,OVC021,0.08,VWS V14.01,2013-02-09 01:15:00,
2013-02-08 20:20:00,37.0,21.1,30.39,NW,315,4.9,5.4,52,0.00,,OVC021,0.08,VWS V14.01,2013-02-09 01:20:00,
2013-02-08 20:25:00,37.0,21.1,30.36,North,0,1.1,5.4,52,0.00,,OVC021,0.08,VWS V14.01,2013-02-09 01:25:00,
2013-02-08 20:30:00,37.2,21.2,30.36,NNW,338,2.9,5.4,52,0.00,,OVC021,0.08,VWS V14.01,2013-02-09 01:30:00,
2013-02-08 20:35:00,37.2,21.2,30.36,NW,315,2.7,6.5,52,0.00,,OVC021,0.08,VWS V14.01,2013-02-09 01:35:00,
2013-02-08 20:40:00,37.2,21.2,30.39,NNW,338,2.7,6.5,52,0.00,,OVC021,0.08,VWS V14.01,2013-02-09 01:40:00,
2013-02-08 20:45:00,37.2,20.8,30.39,WNW,292,1.6,6.5,51,0.00,,OVC021,0.08,VWS V14.01,2013-02-09 01:45:00,
2013-02-08 20:50:00,37.2,20.8,30.39,North,0,2.9,6.5,51,0.00,,OVC021,0.08,VWS V14.01,2013-02-09 01:50:00,
2013-02-08 20:55:00,37.0,20.6,30.39,WNW,292,3.6,6.5,51,0.00,,OVC021,0.08,VWS V14.01,2013-02-09 01:55:00,
2013-02-08 21:00:00,37.2,20.8,30.39,WNW,292,2.7,3.8,51,0.00,,OVC021,0.08,VWS V14.01,2013-02-09 02:00:00,
2013-02-08 21:05:00,37.2,20.8,30.39,NW,315,3.1,5.6,51,0.00,,OVC021,0.08,VWS V14.01,2013-02-09 02:05:00,
2013-02-08 21:10:00,37.2,20.8,30.39,NW,315,2.0,5.6,51,0.00,,OVC021,0.08,VWS V14.01,2013-02-09 02:10:00,
2013-02-08 21:15:00,37.2,20.8,30.39,WNW,292,1.3,5.6,51,0.00,,OVC021,0.08,VWS V14.01,2013-02-09 02:15:00,
2013-02-08 21:20:00,37.2,20.8,30.39,WNW,292,2.7,5.6,51,0.00,,OVC022,0.08,VWS V14.01,2013-02-09 02:20:00,
2013-02-08 21:25:00,37.2,20.8,30.39,North,0,3.1,5.6,51,0.00,,OVC022,0.08,VWS V14.01,2013-02-09 02:25:00,
2013-02-08 21:30:00,37.2,20.8,30.39,NW,315,0.0,5.6,51,0.00,,OVC022,0.08,VWS V14.01,2013-02-09 02:30:00,
2013-02-08 21:35:00,37.0,20.6,30.39,NNW,338,2.0,5.6,51,0.00,,OVC022,0.08,VWS V14.01,2013-02-09 02:35:00,
2013-02-08 21:40:00,37.0,20.6,30.36,WNW,292,2.9,5.6,51,0.00,,OVC022,0.08,VWS V14.01,2013-02-09 02:40:00,
2013-02-08 21:45:00,37.0,20.6,30.36,NNW,338,1.3,5.6,51,0.00,,OVC022,0.08,VWS V14.01,2013-02-09 02:45:00,
2013-02-08 21:50:00,37.0,20.6,30.36,WNW,292,1.3,5.6,51,0.00,,OVC022,0.08,VWS V14.01,2013-02-09 02:50:00,
2013-02-08 21:55:00,37.0,20.6,30.39,NNW,338,1.3,5.6,51,0.00,,OVC022,0.08,VWS V14.01,2013-02-09 02:55:00,
2013-02-08 22:00:00,37.0,20.6,30.39,WNW,292,1.6,1.6,51,0.00,,OVC022,0.08,VWS V14.01,2013-02-09 03:00:00,
2013-02-08 22:05:00,36.9,20.4,30.39,WNW,292,0.0,3.8,51,0.00,,OVC022,0.08,VWS V14.01,2013-02-09 03:05:00,
2013-02-08 22:10:00,36.9,20.4,30.39,NW,315,0.0,3.8,51,0.00,,OVC022,0.08,VWS V14.01,2013-02-09 03:10:00,
2013-02-08 22:15:00,36.7,20.3,30.39,North,0,2.2,3.8,51,0.00,,OVC026,0.08,VWS V14.01,2013-02-09 03:15:00,
2013-02-08 22:20:00,36.5,20.1,30.39,WNW,292,0.0,3.8,51,0.00,,OVC026,0.08,VWS V14.01,2013-02-09 03:20:00,
2013-02-08 22:25:00,36.3,20.4,30.39,WNW,292,0.0,3.8,52,0.00,,OVC026,0.08,VWS V14.01,2013-02-09 03:25:00,
2013-02-08 22:30:00,36.3,20.4,30.39,NNW,338,2.9,3.8,52,0.00,,OVC026,0.08,VWS V14.01,2013-02-09 03:30:00,
2013-02-08 22:35:00,36.3,20.4,30.39,NNW,338,0.0,3.8,52,0.00,,OVC026,0.08,VWS V14.01,2013-02-09 03:35:00,
2013-02-08 22:40:00,36.3,20.4,30.39,WNW,292,0.0,3.8,52,0.00,,OVC026,0.08,VWS V14.01,2013-02-09 03:40:00,
2013-02-08 22:45:00,36.3,20.4,30.39,WNW,292,0.0,3.8,52,0.00,,OVC026,0.08,VWS V14.01,2013-02-09 03:45:00,
2013-02-08 22:50:00,36.3,20.4,30.39,NNW,338,1.6,3.8,52,0.00,,OVC026,0.08,VWS V14.01,2013-02-09 03:50:00,
2013-02-08 22:55:00,36.3,20.4,30.39,NNW,338,2.9,3.8,52,0.00,,OVC026,0.08,VWS V14.01,2013-02-09 03:55:00,
2013-02-08 23:00:00,36.1,20.2,30.39,NW,315,1.6,2.7,52,0.00,,OVC026,0.08,VWS V14.01,2013-02-09 04:00:00,
2013-02-08 23:05:00,36.1,20.7,30.39,NW,315,0.0,3.1,53,0.00,,OVC026,0.08,VWS V14.01,2013-02-09 04:05:00,
2013-02-08 23:10:00,36.1,20.7,30.39,NNW,338,1.1,3.1,53,0.00,,OVC026,0.08,VWS V14.01,2013-02-09 04:10:00,
2013-02-08 23:15:00,36.1,20.7,30.39,NW,315,0.0,4.0,53,0.00,,OVC028,0.08,VWS V14.01,2013-02-09 04:15:00,
2013-02-08 23:20:00,36.1,20.7,30.39,NNW,338,1.3,4.0,53,0.00,,OVC028,0.08,VWS V14.01,2013-02-09 04:20:00,
2013-02-08 23:25:00,36.1,20.7,30.39,NW,315,3.4,4.0,53,0.00,,OVC028,0.08,VWS V14.01,2013-02-09 04:25:00,
2013-02-08 23:30:00,36.1,20.7,30.39,NW,315,2.0,4.0,53,0.00,,OVC028,0.08,VWS V14.01,2013-02-09 04:30:00,
2013-02-08 23:35:00,36.1,20.7,30.39,NNW,338,3.1,4.3,53,0.00,,OVC028,0.08,VWS V14.01,2013-02-09 04:35:00,
2013-02-08 23:40:00,36.1,20.7,30.39,NNE,22,2.9,4.3,53,0.00,,OVC028,0.08,VWS V14.01,2013-02-09 04:40:00,
2013-02-08 23:45:00,36.1,21.1,30.39,North,0,0.0,4.3,54,0.00,,OVC028,0.08,VWS V14.01,2013-02-09 04:45:00,
2013-02-08 23:50:00,36.1,21.1,30.39,WNW,292,1.3,4.3,54,0.00,,OVC028,0.08,VWS V14.01,2013-02-09 04:50:00,
2013-02-08 23:55:00,36.1,21.1,30.41,North,0,3.1,4.3,54,0.00,,OVC028,0.08,VWS V14.01,2013-02-09 04:55:00,